Windom, MN

10:28 AM CST on December 14, 2017 (GMT -0600)
Windom Municipal

Weather History for KMWM - October, 2012

Change the Weather History Date:

Wednesday, October 24, 2012

  Actual Average Record
Temperature  
Mean Temperature 49 °F -  
Max Temperature 57 °F 57 °F 79 °F (1952)
Min Temperature 41 °F 35 °F 14 °F (1999)
Degree Days  
Heating Degree Days 16    
Moisture  
Dew Point 47 °F    
Average Humidity 91    
Maximum Humidity 100    
Minimum Humidity 81    
Precipitation  
Precipitation 0.00 in - - ()
Sea Level Pressure  
Sea Level Pressure 29.81 in    
Wind  
Wind Speed 10 mph (NNW)    
Max Wind Speed 28 mph    
Max Gust Speed 32 mph    
Visibility 7 miles    
Events Rain    
Averages and records for this station are not official NWS values.
T = Trace of Precipitation, MM = Missing Value Source: NWS Daily Summary

Daily Weather History Graph

Daily Weather History Graph

Search for Another Location

Airport or City:

Trip Planner

Search our weather history database for the weather conditions in past years. The results will help you decide how hot, cold, wet, or windy it might be!

Date:

Astronomy

Oct. 24, 2012 Rise Set
Actual Time 7:46 AM CDT 6:21 PM CDT
Civil Twilight 7:17 AM CDT 6:50 PM CDT
Nautical Twilight 6:43 AM CDT 7:24 PM CDT
Astronomical Twilight 6:10 AM CDT 7:57 PM CDT
Moon 3:46 PM CDT (10/24) 2:33 AM CDT (10/24)
Length of Visible Light 11h 33m
Length of Day
10h 34m
Waxing Gibbous, 76% of the Moon is Illuminated
Oct 24
Waxing Gibbous
Oct 29
Full
Nov 6
Last Quarter
Nov 13
New
Nov 20
First Quarter

Hourly Weather History & Observations

Time (CDT) Temp. Windchill Dew Point Humidity Pressure Visibility Wind Dir Wind Speed Gust Speed Precip Events Conditions
12:12 AM 55.4 °F - 53.6 °F 94% 29.80 in 4.0 mi Calm Calm - N/A   Overcast
12:32 AM 55.4 °F - 53.6 °F 94% 29.80 in 4.0 mi Calm Calm - N/A   Overcast
12:53 AM 55.4 °F - 53.6 °F 94% 29.80 in 3.0 mi Calm Calm - N/A   Overcast
1:12 AM 55.4 °F - 53.6 °F 94% 29.80 in 3.0 mi NNW 3.5 mph - N/A   Overcast
1:33 AM 57.2 °F - 53.6 °F 88% 29.80 in 5.0 mi NNW 6.9 mph - N/A   Overcast
1:53 AM 55.4 °F - 53.6 °F 94% 29.80 in 5.0 mi North 3.5 mph - N/A   Overcast
2:12 AM 55.4 °F - 53.6 °F 94% 29.80 in 5.0 mi NNW 5.8 mph - N/A   Overcast
2:33 AM 55.4 °F - 53.6 °F 94% 29.82 in 7.0 mi NW 5.8 mph - N/A   Overcast
2:53 AM 55.4 °F - 53.6 °F 94% 29.81 in 7.0 mi NNW 5.8 mph - N/A   Overcast
3:12 AM 55.4 °F - 53.6 °F 94% 29.81 in 7.0 mi NNW 4.6 mph - N/A   Overcast
3:33 AM 55.4 °F - 51.8 °F 88% 29.81 in 7.0 mi NW 3.5 mph - N/A   Overcast
3:53 AM 55.4 °F - 53.6 °F 94% 29.82 in 7.0 mi NW 3.5 mph - N/A   Overcast
4:12 AM 55.4 °F - 53.6 °F 94% 29.83 in 7.0 mi NW 6.9 mph - N/A   Overcast
4:33 AM 55.4 °F - 53.6 °F 94% 29.83 in 7.0 mi NW 8.1 mph - N/A   Overcast
4:53 AM 55.4 °F - 53.6 °F 94% 29.84 in 7.0 mi NNW 9.2 mph - N/A   Overcast
5:12 AM 55.4 °F - 51.8 °F 88% 29.84 in 7.0 mi NNW 11.5 mph - N/A   Overcast
5:33 AM 53.6 °F - 51.8 °F 94% 29.84 in 7.0 mi NNW 13.8 mph - N/A   Overcast
5:52 AM 53.6 °F - 51.8 °F 94% 29.84 in 7.0 mi NNW 10.4 mph - N/A   Overcast
6:12 AM 53.6 °F - 51.8 °F 94% 29.83 in 7.0 mi North 12.7 mph - N/A   Overcast
6:33 AM 53.6 °F - 51.8 °F 94% 29.84 in 7.0 mi North 12.7 mph - N/A   Overcast
6:52 AM 51.8 °F - 50.0 °F 94% 29.83 in 10.0 mi North 13.8 mph - N/A   Overcast
7:12 AM 51.8 °F - 48.2 °F 88% 29.83 in 7.0 mi North 15.0 mph - N/A   Overcast
7:33 AM 51.8 °F - 48.2 °F 88% 29.84 in 7.0 mi NNW 13.8 mph - N/A   Overcast
7:52 AM 51.8 °F - 48.2 °F 88% 29.84 in 7.0 mi NNW 13.8 mph 19.6 mph N/A   Overcast
8:12 AM 50.0 °F - 48.2 °F 94% 29.83 in 1.5 mi NNW 16.1 mph - N/A   Overcast
8:52 AM 48.2 °F - 48.2 °F 100% 29.82 in 4.0 mi North 18.4 mph 26.5 mph N/A   Overcast
9:12 AM 50.0 °F - 46.4 °F 87% 29.83 in 7.0 mi North 18.4 mph 24.2 mph N/A   Overcast
9:33 AM 48.2 °F - 46.4 °F 93% 29.86 in 5.0 mi NNW 12.7 mph 18.4 mph N/A   Overcast
9:52 AM 48.2 °F - 46.4 °F 93% 29.86 in 7.0 mi North 13.8 mph 19.6 mph N/A   Overcast
10:13 AM 48.2 °F - 46.4 °F 93% 29.87 in 5.0 mi NNW 12.7 mph - N/A   Light Drizzle
10:33 AM 48.2 °F - 46.4 °F 93% 29.86 in 5.0 mi North 15.0 mph - N/A   Light Drizzle
11:12 AM 48.2 °F - 46.4 °F 93% 29.85 in 7.0 mi North 15.0 mph - N/A   Overcast
11:26 AM 48.2 °F - 46.4 °F 93% 29.84 in 7.0 mi NNW 13.8 mph - N/A   Overcast
12:24 PM 48.2 °F - - N/A% 29.83 in - North 16.1 mph - N/A   Unknown
12:33 PM 48.2 °F - 46.4 °F 93% 29.82 in 5.0 mi North 17.3 mph 21.9 mph N/A   Mist
12:52 PM 48.2 °F - 46.4 °F 93% 29.82 in 7.0 mi NNW 15.0 mph - N/A   Overcast
1:12 PM 48.2 °F - 46.4 °F 93% 29.81 in 7.0 mi NNW 16.1 mph - N/A   Overcast
1:33 PM 48.2 °F - 44.6 °F 87% 29.80 in 10.0 mi NNW 18.4 mph 23.0 mph N/A   Overcast
1:52 PM 48.2 °F - 46.4 °F 93% 29.80 in 5.0 mi NNW 18.4 mph - N/A   Overcast
2:12 PM 46.4 °F 39.2 °F 44.6 °F 93% 29.80 in 2.0 mi NNW 18.4 mph - N/A   Drizzle
2:33 PM 46.4 °F 39.5 °F 44.6 °F 93% 29.80 in 1.8 mi NNW 17.3 mph - N/A Rain Rain
2:52 PM 46.4 °F 39.5 °F 44.6 °F 93% 29.79 in 1.5 mi NNW 17.3 mph 24.2 mph N/A Rain Light Rain
3:12 PM 46.4 °F 39.2 °F 44.6 °F 93% 29.79 in 1.8 mi NNW 18.4 mph 24.2 mph N/A   Drizzle
3:33 PM 46.4 °F 39.2 °F 44.6 °F 93% 29.79 in 3.0 mi NNW 18.4 mph 23.0 mph N/A   Light Drizzle
3:52 PM 46.4 °F 39.2 °F 44.6 °F 93% 29.79 in 4.0 mi NNW 18.4 mph 23.0 mph N/A   Light Drizzle
4:12 PM 46.4 °F 39.5 °F 44.6 °F 93% 29.79 in 5.0 mi NNW 17.3 mph 24.2 mph N/A   Light Drizzle
4:32 PM 46.4 °F 39.2 °F 44.6 °F 93% 29.79 in 7.0 mi NNW 18.4 mph 23.0 mph N/A   Light Drizzle
4:52 PM 46.4 °F 39.5 °F 42.8 °F 87% 29.79 in 10.0 mi NNW 17.3 mph 24.2 mph N/A   Overcast
5:32 PM 46.4 °F 39.5 °F 42.8 °F 87% 29.79 in 10.0 mi NNW 17.3 mph 24.2 mph N/A   Overcast
5:52 PM 46.4 °F 39.2 °F 42.8 °F 87% 29.80 in 10.0 mi NNW 18.4 mph - N/A   Overcast
6:13 PM 44.6 °F 36.9 °F 42.8 °F 93% 29.79 in 10.0 mi NNW 18.4 mph - N/A   Light Drizzle
6:32 PM 44.6 °F 36.9 °F 41.0 °F 87% 29.80 in 10.0 mi NNW 18.4 mph - N/A   Overcast
6:52 PM 44.6 °F 36.9 °F 41.0 °F 87% 29.79 in 10.0 mi NNW 18.4 mph 24.2 mph N/A   Overcast
7:32 PM 44.6 °F 37.2 °F 41.0 °F 87% 29.80 in 10.0 mi NNW 17.3 mph 23.0 mph N/A   Overcast
8:13 PM 44.6 °F 37.8 °F 41.0 °F 87% 29.81 in 10.0 mi NNW 15.0 mph 23.0 mph N/A   Overcast
8:32 PM 44.6 °F 37.2 °F 41.0 °F 87% 29.80 in 10.0 mi NNW 17.3 mph 23.0 mph N/A   Overcast
8:52 PM 44.6 °F 36.1 °F 41.0 °F 87% 29.79 in 10.0 mi NNW 21.9 mph 25.3 mph N/A   Overcast
9:13 PM 44.6 °F 36.6 °F 39.2 °F 81% 29.80 in 10.0 mi NNW 19.6 mph - N/A   Overcast
9:52 PM 42.8 °F 34.5 °F 39.2 °F 87% 29.82 in 10.0 mi NNW 18.4 mph 28.8 mph N/A   Overcast
10:13 PM 42.8 °F 34.0 °F 39.2 °F 87% 29.82 in 10.0 mi NNW 20.7 mph 27.6 mph N/A   Overcast
10:32 PM 42.8 °F 33.8 °F 39.2 °F 87% 29.82 in 10.0 mi NNW 21.9 mph 27.6 mph N/A   Overcast
10:52 PM 42.8 °F 33.8 °F 39.2 °F 87% 29.82 in 5.0 mi NNW 21.9 mph 31.1 mph N/A   Overcast
11:13 PM 41.0 °F 30.7 °F 39.2 °F 93% 29.80 in 5.0 mi NNW 25.3 mph 31.1 mph N/A   Overcast
11:33 PM 41.0 °F 30.9 °F 39.2 °F 93% 29.79 in 7.0 mi NNW 24.2 mph 32.2 mph N/A   Overcast
11:52 PM 41.0 °F 30.2 °F 39.2 °F 93% 29.78 in 10.0 mi NNW 27.6 mph - N/A   Overcast